Probability
0 0 0 0 0 0 0 0 0 0 0 0 0 0 0 0 0 0 0 0 0 0 0 0 0 0 0 0 0 0 0 0 0 0 0 0 0 0 0 0 0 0 0
0 0 0 0 0 0 0 0 0 0 0 0 0 0 0 0 0 0 0 0 0 0 0 0 0 0 0 0 0 0 0 0 0 0 0 0 0 0 0 0 0 0 0
0 0 0 0 0 0 0 0 0 0 0 0 0 0 0 0 0 0 0 0 0 0 0 0 0 0 0 0 0 0 0 0 0 0 0 0 0 0 0 0 0 0 0
0 0 0 0 0 0 0 0 0 0 0 0 0 0 0 0 0 0 0 0 0 0 0 0 0 0 0 0 0 0 0 0 0 0 0 0 0 0 0 0 0 0 0
0 0 0 0 0 0 0 0 0 0 0 0 0 0 0 0 0 0 0 0 0 0 0 0 0 0 0 0 0 0 0 0 0 0 0 0 0 0 0 0 0 0 0
0 0 0 0 0 0 0 0 0 0 0 0 0 0 0 0 0 0 0 0 0 0 0 0 0 0 0 0 0 0 0 0 0 0 0 0 0 0 0 0 0 0 0
0 0 0 0 0 0 0 0 0 0 0 0 0 0 0 0 0 0 0 0 0 0 0 0 0 0 0 0 0 0 0 0 0 0 0 0 0 0 0 0 0 0 0
0 0 0 0 0 0 0 0 0 0 0 0 0 0 0 0 0 0 0 0 0 0 0 0 0 0 0 0 0 0 0 0 0 0 0 0 0 0 0 0 0 0 0
0 0 0 0 0 0 0 0 0 0 0 0 0 0 0 0 0 0 0 0 0 0 0 0 0 0 0 0 0 0 0 0 0 0 0 0 0 0 0 0 0 0 0
0 0 0 0 0 0 0 0 0 0 0 0 0 0 0 0 0 0 0 0 0 0 0 0 0 0 0 0 0 0 0 0 0 0 0 0 0 0 0 0 0 0 0
0 0 0 0 0 0 0 0 0 0 0 0 0 0 0 0 0 0 0 0 0 0 0 0 0 0 0 0 0 0 0 0 0 0 0 0 0 0 0 0 0 0 0
0 0 0 0 0 0 0 0 0 0 0 0 0 0 0 0 0 0 0 0 0 0 0 0 0 0 0 0 0 0 0 0 0 0 0 0 0 0 0 0 0 0 0
0 0 0 0 0 0 0 0 0 0 0 0 0 0 0 0 0 0 0 0 0 0 0 0 0 0 0 0 0 0 0 0 0 0 0 0 0 0 0 0 0 0 0
0 0 0 0 0 0 0 0 0 0 0 0 0 0 0 0 0 0 0 0 0 0 0 0 0 0 0 0 0 0 0 0 0 0 0 0 0 0 0 0 0 0 0
0 0 0 0 0 0 0 0 0 0 0 0 0 0 0 0 0 0 0 0 0 0 0 0 0 0 0 0 0 0 0 0 0 0 0 0 0 0 0 0 0 0 0
0 0 0 0 0 0 0 0 0 0 0 0 0 0 0 0 0 0 0 0 0 0 0 0 0 0 0 0 0 0 0 0 0 0 0 0 0 0 0 0 0 0 0
0 0 0 0 0 0 0 0 0 0 0 0 0 0 0 0 0 0 0 0 0 0 0 0 0 0 0 0 0 0 0 0 0 0 0 0 0 0 0 0 0 0 0
0 0 0 0 0 0 0 0 0 0 0 0 0 0 0 0 0 0 0 0 0 0 0 0 0 0 0 0 0 0 0 0 0 0 0 0 0 0 0 0 0 0 0
0 0 0 0 0 0 0 0 0 0 0 0 0 0 0 0 0 0 0 0 0 0 0 0 0 0 0 0 0 0 0 0 0 0 0 0 0 0 0 0 0 0 0
0 0 0 0 0 0 0 0 0 0 0 0 0 0 0 0 0 0 0 0 0 0 0 0 0 0 0 0 0 0 0 0 0 0 0 0 0 0 0 0 0 0 0
0 0 0 0 0 0 0 0 0 0 0 0 0 0 0 0 0 0 0 0 0 0 0 0 0 0 0 0 0 0 0 0 0 0 0 0 0 0 0 0 0 0 0
0 0 0 0 0 0 0 0 0 0 0 0 0 0 0 0 0 0 0 0 0 0 0 0 0 0 0 0 0 0 0 0 0 0 0 0 0 0 0 0 0 0 0
0 0 0 0 0 0 0 0 0 0 0 0 0 0 0 0 0 0 0 0 0 0 0 0 0 0 0 0 0 0 0 0 0 0 0 0 0 0 0 0 0 0 0
0 0 0 0 0 0 0 0 0 0 0 0 0 0 0 0 0 0 0 0 0 0 0 0 0 0 0 0 0 0 0 0 0 0 0 0 0 0 0 0 0 0 0
0 0 0 0 0 0 0 0 0 0 0 0 0 0 0 0 0 0 0 0 0 0 0 0 0 0 0 0 0 0 0 0 0 0 0 0 0 0 0 0 0 0 0
0 0 0 0 0 0 0 0 0 0 0 0 0 0 0 0 0 0 0 0 0 0 0 0 0 0 0 0 0 0 0 0 0 0 0 0 0 0 0 0 0 0 0
Height
5693 5694 5695 5697 5698 5700 5703 5706 5709 5713 5717 5721 5726 5730 5734 5737 5740 5744 5747 5750 5754 5757 5761 5764 5767 5770 5773 5775 5777 5778 5780 5782 5783 5784 5785 5786 5786 5787 5788 5789 5789 5789 5789
5684 5684 5685 5686 5687 5688 5690 5693 5697 5701 5705 5709 5714 5718 5721 5725 5728 5732 5735 5738 5742 5746 5749 5753 5756 5760 5762 5764 5767 5768 5770 5772 5773 5774 5775 5776 5778 5779 5779 5779 5780 5780 5780
5675 5676 5676 5677 5677 5678 5679 5682 5685 5689 5693 5697 5702 5706 5709 5713 5716 5720 5723 5726 5729 5734 5738 5741 5745 5748 5751 5753 5756 5758 5760 5762 5763 5764 5765 5767 5768 5769 5770 5770 5770 5770 5770
5667 5668 5668 5669 5669 5669 5670 5672 5674 5678 5681 5686 5690 5694 5698 5702 5705 5708 5711 5714 5718 5721 5725 5730 5733 5736 5739 5742 5744 5747 5749 5751 5752 5753 5755 5756 5757 5758 5760 5761 5761 5761 5761
5661 5661 5661 5661 5661 5661 5662 5664 5665 5668 5671 5674 5678 5683 5686 5690 5693 5696 5699 5702 5706 5710 5714 5717 5721 5724 5727 5730 5733 5735 5737 5739 5741 5743 5744 5745 5746 5747 5748 5751 5752 5751 5751
5656 5655 5655 5655 5655 5654 5655 5656 5658 5660 5662 5664 5668 5672 5676 5679 5682 5686 5689 5692 5695 5699 5702 5706 5709 5712 5716 5718 5721 5723 5726 5728 5730 5732 5733 5735 5736 5737 5737 5739 5740 5741 5741
5651 5651 5650 5650 5649 5649 5649 5650 5651 5653 5654 5656 5659 5663 5666 5669 5673 5676 5679 5682 5685 5689 5692 5695 5699 5702 5705 5707 5709 5712 5714 5717 5719 5721 5722 5724 5725 5726 5727 5727 5728 5729 5730
5648 5647 5646 5645 5645 5645 5645 5645 5646 5647 5648 5650 5653 5655 5658 5661 5664 5667 5669 5672 5675 5679 5682 5684 5687 5691 5694 5696 5698 5701 5703 5706 5707 5709 5711 5713 5714 5714 5715 5716 5716 5717 5718
5645 5644 5643 5642 5641 5641 5641 5641 5641 5642 5643 5644 5646 5648 5650 5653 5655 5658 5660 5663 5666 5669 5672 5674 5677 5680 5683 5685 5688 5690 5692 5694 5696 5698 5699 5701 5702 5703 5703 5703 5703 5703 5703
5643 5642 5641 5640 5639 5638 5638 5638 5638 5638 5639 5639 5640 5642 5644 5646 5648 5650 5652 5654 5657 5660 5662 5665 5667 5670 5672 5675 5676 5679 5681 5683 5685 5687 5688 5689 5690 5690 5691 5690 5690 5689 5688
5642 5641 5639 5638 5637 5636 5636 5635 5635 5635 5636 5636 5637 5638 5640 5641 5642 5643 5644 5646 5648 5650 5653 5656 5658 5660 5662 5664 5666 5668 5670 5672 5674 5675 5676 5677 5678 5678 5678 5678 5677 5676 5674
5642 5640 5638 5637 5636 5635 5634 5634 5633 5633 5633 5634 5634 5635 5636 5636 5636 5637 5638 5639 5641 5643 5645 5647 5649 5651 5653 5655 5656 5658 5660 5662 5663 5664 5665 5666 5666 5666 5666 5665 5664 5663 5661
5641 5639 5638 5637 5635 5634 5633 5633 5632 5632 5632 5632 5632 5632 5633 5632 5633 5633 5633 5634 5635 5637 5638 5640 5642 5643 5644 5646 5647 5649 5650 5651 5652 5653 5654 5654 5654 5654 5653 5652 5651 5649 5647
5641 5639 5638 5636 5635 5634 5633 5632 5631 5631 5631 5630 5630 5630 5630 5630 5630 5629 5629 5630 5630 5631 5632 5633 5635 5636 5637 5637 5638 5639 5640 5641 5642 5642 5642 5642 5641 5641 5640 5639 5637 5636 5633
5641 5640 5638 5636 5635 5634 5632 5631 5631 5630 5629 5629 5629 5628 5627 5626 5626 5626 5625 5625 5625 5626 5627 5627 5628 5628 5628 5628 5629 5629 5630 5630 5630 5630 5630 5630 5629 5628 5626 5625 5623 5620 5618
5641 5640 5638 5637 5635 5634 5632 5631 5629 5628 5628 5627 5626 5625 5624 5623 5622 5622 5621 5621 5621 5621 5621 5621 5621 5620 5620 5620 5620 5620 5620 5620 5620 5619 5618 5617 5616 5614 5612 5610 5608 5605 5603
5641 5640 5638 5637 5635 5634 5632 5631 5629 5628 5626 5625 5624 5623 5622 5621 5619 5618 5617 5617 5616 5616 5616 5615 5614 5612 5612 5611 5610 5610 5609 5609 5608 5607 5606 5604 5602 5600 5598 5596 5593 5590 5586
5640 5639 5638 5636 5635 5634 5632 5631 5629 5627 5625 5624 5622 5620 5619 5617 5616 5614 5613 5612 5612 5611 5610 5608 5607 5605 5603 5602 5601 5600 5599 5597 5596 5594 5593 5591 5589 5587 5584 5582 5579 5575 5571
5639 5638 5637 5635 5634 5632 5631 5629 5628 5626 5624 5622 5620 5618 5616 5614 5613 5611 5609 5608 5606 5605 5603 5601 5599 5597 5595 5593 5591 5590 5588 5587 5585 5582 5580 5578 5576 5574 5571 5568 5565 5561 5557
5638 5637 5635 5634 5632 5631 5629 5627 5626 5624 5622 5620 5618 5616 5614 5611 5609 5607 5605 5603 5601 5598 5596 5594 5591 5589 5586 5583 5581 5580 5578 5576 5574 5571 5568 5565 5562 5559 5556 5552 5549 5546 5542
5636 5635 5633 5632 5630 5628 5626 5625 5623 5621 5619 5617 5615 5613 5610 5608 5605 5603 5600 5598 5595 5592 5589 5587 5584 5581 5577 5574 5572 5570 5567 5565 5562 5559 5556 5553 5549 5545 5541 5537 5534 5530 5527
5634 5632 5631 5629 5627 5625 5623 5621 5619 5617 5615 5613 5611 5608 5606 5603 5600 5597 5594 5591 5588 5585 5582 5579 5576 5573 5569 5566 5563 5560 5557 5554 5550 5547 5544 5540 5536 5532 5527 5523 5519 5515 5511
5631 5629 5628 5626 5624 5622 5620 5617 5615 5613 5610 5608 5605 5603 5600 5597 5594 5591 5588 5585 5581 5578 5574 5571 5568 5564 5561 5557 5553 5550 5546 5542 5539 5535 5532 5528 5523 5519 5514 5510 5505 5501 5497
5627 5625 5624 5622 5620 5617 5615 5613 5610 5608 5605 5602 5600 5597 5594 5591 5587 5584 5581 5577 5574 5570 5566 5563 5559 5555 5551 5547 5543 5540 5536 5532 5528 5524 5520 5515 5511 5506 5502 5497 5493 5488 5484
5622 5620 5619 5617 5615 5612 5610 5607 5604 5602 5599 5596 5593 5590 5587 5583 5580 5576 5573 5569 5566 5562 5558 5554 5550 5546 5542 5537 5533 5529 5525 5521 5517 5513 5508 5504 5499 5494 5489 5485 5480 5476 5471
5615 5614 5612 5610 5608 5606 5603 5601 5598 5595 5592 5589 5586 5582 5579 5575 5572 5568 5564 5560 5556 5552 5548 5544 5540 5536 5531 5527 5523 5518 5514 5510 5506 5501 5497 5492 5487 5482 5477 5473 5468 5464 5459
Wind_Speed
41 43 45 46 47 48 49 50 50 51 52 52 52 52 52 52 52 53 53 53 53 52 52 52 50 48 47 46 45 45 45 45 44 44 44 42 42 41 40 40 39 39 39
39 40 40 42 44 45 46 48 49 50 50 51 51 51 51 52 52 53 53 53 54 54 53 53 52 51 50 49 48 47 47 47 45 44 44 43 43 42 42 41 41 40 40
36 36 36 37 38 40 42 44 46 47 48 49 50 51 50 50 51 52 53 54 54 54 55 54 53 53 53 52 51 49 48 47 46 46 46 45 44 43 42 42 42 41 41
32 32 33 33 34 35 37 39 42 44 47 48 49 50 50 49 49 49 51 53 55 54 54 53 53 53 52 51 51 50 50 49 48 46 46 46 45 45 44 43 44 43 42
27 28 29 30 30 32 34 36 38 40 42 44 46 47 47 48 48 47 48 49 50 50 50 51 51 51 51 51 52 51 51 50 49 48 48 47 46 46 45 44 43 43 42
22 23 25 26 27 28 30 32 34 36 38 39 41 42 43 43 43 43 43 44 46 47 47 47 47 48 49 50 51 52 52 50 49 49 48 47 47 45 45 43 43 43 43
19 20 21 22 23 24 25 26 28 30 32 33 35 37 39 39 40 41 41 42 44 45 45 46 46 46 48 48 49 50 50 50 49 49 48 47 46 45 45 45 45 44 45
15 16 16 17 18 19 20 21 23 25 27 29 31 33 36 36 37 39 39 40 42 44 45 46 46 45 46 47 49 50 49 49 49 48 46 46 46 45 46 46 47 47 47
11 12 12 13 14 16 17 18 19 20 22 24 26 28 30 32 33 36 37 39 40 41 41 42 43 43 44 45 46 48 48 48 47 46 46 46 47 48 48 48 49 50 50
9 9 10 11 12 13 13 14 15 16 18 20 21 23 24 26 28 32 35 36 37 38 39 39 40 41 43 43 44 44 44 45 46 47 47 48 48 48 49 49 50 51 52
7 7 8 8 8 8 8 10 11 13 14 15 16 18 18 20 22 25 27 29 31 32 34 35 36 37 39 40 40 41 42 42 43 45 45 46 46 46 47 48 49 51 52
7 6 7 6 7 7 6 7 8 8 10 11 13 14 15 16 17 19 21 24 27 29 30 32 32 33 34 35 36 37 39 40 41 42 43 44 45 46 46 48 50 51 53
8 7 7 6 7 7 6 6 7 7 8 10 10 11 11 12 13 15 17 19 22 23 25 27 29 30 31 32 34 35 37 38 39 40 42 43 44 46 47 48 49 51 52
8 8 8 8 7 7 6 5 5 5 5 7 8 9 10 10 12 13 14 15 17 18 20 23 26 28 30 32 33 34 35 36 38 40 42 43 45 46 48 49 50 51 52
7 8 8 8 8 7 7 7 5 5 6 6 8 9 10 11 12 13 14 15 16 18 20 22 25 27 30 31 32 34 36 37 38 40 42 44 46 47 48 49 50 51 52
7 7 8 7 7 7 7 7 6 6 7 7 8 8 9 10 12 13 14 15 16 18 21 23 25 27 28 30 32 34 36 37 39 40 41 43 44 46 47 48 50 51 52
7 6 7 7 7 8 8 9 8 8 8 8 8 9 10 12 13 14 15 16 18 20 22 24 25 27 29 31 32 34 36 38 40 42 43 44 44 45 46 47 49 50 51
7 7 8 8 8 9 9 10 10 10 10 11 10 11 12 13 14 15 16 18 19 21 22 25 26 28 29 31 33 34 35 37 39 41 42 43 44 45 47 48 49 50 51
7 7 8 9 9 10 10 11 11 11 12 12 12 13 13 14 15 16 16 18 19 21 23 25 26 28 30 31 32 33 34 36 37 39 41 42 43 45 46 48 49 49 50
9 9 10 10 11 11 12 12 12 13 13 13 14 14 15 16 17 17 18 19 21 22 24 26 27 28 29 31 32 34 35 36 38 40 41 43 44 46 47 48 48 48 49
11 11 12 12 12 13 13 13 14 15 16 16 17 18 19 19 20 21 22 22 23 24 25 27 28 29 30 31 32 35 36 37 39 40 41 43 44 46 47 48 48 49 49
12 12 12 13 13 14 15 16 16 17 18 19 20 20 21 22 22 23 23 24 25 26 28 29 30 30 31 32 34 35 36 37 38 40 41 43 44 45 46 47 47 48 48
13 14 14 15 15 16 17 18 18 19 20 21 21 22 24 25 25 25 26 27 27 28 29 30 30 32 33 35 36 37 37 37 38 40 42 43 44 44 44 45 46 46 45
17 17 17 17 18 19 19 20 20 21 23 23 24 26 27 28 28 28 29 30 31 31 32 33 34 35 36 37 38 38 38 39 40 41 42 43 43 44 44 44 45 44 44
20 20 20 20 21 21 22 23 23 24 25 26 27 28 29 30 30 31 32 33 33 34 34 35 36 37 37 38 39 39 39 40 41 41 42 43 43 43 44 43 43 43 43
22 23 23 24 24 24 25 25 26 27 28 30 31 31 32 32 33 33 33 34 35 35 36 37 37 38 38 39 39 39 40 41 41 41 42 42 43 43 43 42 42 42 43
Wind_Direction
261 261 260 259 258 255 253 251 249 248 248 249 249 249 249 250 251 250 250 250 250 251 252 252 254 254 256 257 258 259 260 263 265 265 265 266 267 268 269 269 271 273 274
261 261 261 260 259 256 254 251 249 248 248 248 248 249 249 250 250 250 250 250 250 251 251 252 253 254 255 256 257 258 259 261 263 264 265 266 266 267 268 269 271 272 273
262 261 260 260 259 257 254 252 250 248 248 248 247 249 250 251 251 251 250 250 250 251 251 252 253 254 254 255 256 258 259 260 262 263 265 265 265 267 268 269 270 271 273
262 261 260 261 259 256 254 252 250 249 248 248 248 249 251 252 252 252 251 251 251 251 251 252 252 253 254 254 256 258 258 258 260 262 264 266 266 267 267 268 269 270 271
263 262 262 263 260 257 255 253 251 249 248 248 249 249 250 251 251 251 252 251 250 249 250 250 252 252 253 254 256 256 257 257 258 260 263 265 267 268 269 269 268 269 270
267 267 266 265 263 259 255 253 253 251 249 248 248 247 249 249 249 250 252 251 249 247 247 249 251 252 253 253 254 255 256 257 258 260 262 264 265 266 267 268 268 268 269
271 269 268 266 263 260 258 255 253 251 249 248 248 248 247 247 248 249 251 252 249 247 246 248 250 252 253 253 255 256 257 257 259 260 261 262 263 264 265 268 270 271 271
274 271 270 267 265 261 260 259 256 252 251 251 250 249 248 248 248 249 250 250 249 248 249 250 250 252 254 256 256 257 256 257 258 259 260 261 263 265 266 269 271 272 273
277 274 275 272 268 265 262 261 257 255 253 252 251 250 249 250 249 250 251 251 249 249 249 250 250 251 254 257 258 256 256 256 258 260 261 262 264 265 267 270 272 275 275
296 292 285 283 278 271 266 262 256 254 253 250 249 248 247 249 251 252 253 251 249 249 249 251 252 253 255 256 256 256 256 257 259 261 263 265 266 267 269 272 274 275 277
316 311 301 293 285 275 269 263 261 257 253 250 247 245 249 253 256 254 253 252 251 250 252 254 255 255 256 256 257 257 257 259 261 262 263 265 266 269 271 273 275 276 277
330 321 316 308 296 290 278 270 265 258 255 250 248 245 251 257 258 256 254 251 251 253 253 254 255 255 256 258 260 260 259 260 261 263 265 267 269 271 272 274 276 277 278
347 338 333 326 315 309 298 291 281 272 268 259 251 247 255 261 261 259 258 256 255 255 255 255 257 257 259 261 261 262 263 264 265 266 268 269 270 272 275 276 278 279 279
355 355 352 344 336 332 319 308 301 288 281 274 267 266 268 268 268 268 270 266 264 263 263 263 262 262 263 263 264 265 266 267 268 269 270 271 273 274 276 277 278 279 281
7 6 359 354 345 337 334 327 319 310 304 298 290 282 282 284 280 278 279 276 272 270 270 272 270 269 269 269 268 268 268 269 270 271 272 273 275 276 277 278 279 280 281
357 360 360 360 360 357 357 355 342 332 320 314 310 305 299 296 289 284 283 281 277 274 274 276 276 275 274 274 273 272 271 272 272 274 275 276 277 278 279 280 281 282 283
353 357 358 358 2 4 4 3 358 351 342 329 319 312 308 304 300 291 288 285 282 282 282 282 282 281 279 277 276 276 275 274 275 277 278 278 279 280 281 282 284 285 287
351 356 355 350 346 347 348 347 346 344 338 334 327 318 317 312 305 296 292 289 287 288 287 287 287 287 285 282 280 279 280 280 280 280 281 281 282 283 285 285 286 286 288
345 344 342 337 333 332 332 333 333 333 330 328 325 318 315 314 311 306 300 297 294 292 293 293 291 289 287 285 284 284 284 284 285 285 285 285 286 286 287 287 287 287 288
330 326 326 326 323 321 321 322 323 325 324 323 323 321 316 314 312 309 306 302 300 297 296 295 294 293 291 288 286 286 287 286 287 287 287 287 286 287 287 288 288 288 289
315 315 315 318 318 317 315 316 316 317 318 318 318 316 315 313 309 306 304 302 301 301 299 297 296 296 296 294 292 291 290 289 289 289 289 289 288 289 289 289 289 289 289
311 312 311 310 312 313 313 313 314 314 313 313 314 313 313 312 309 306 304 304 303 302 301 300 298 297 297 296 295 295 293 292 291 291 290 291 291 291 291 291 290 290 291
302 305 306 306 307 309 311 312 313 314 313 313 313 312 311 310 309 308 306 306 306 304 303 303 301 298 298 297 297 297 297 295 294 294 294 295 295 295 295 294 293 293 293
294 296 299 302 303 305 306 307 308 310 311 311 309 309 308 308 307 306 305 305 305 305 304 304 303 301 299 299 299 298 297 297 297 297 297 297 298 298 297 296 295 294 295
287 289 292 295 298 301 302 302 303 306 307 307 308 308 307 306 304 304 303 303 303 303 303 304 303 302 300 300 300 299 298 297 298 298 299 299 300 300 299 298 297 297 297
284 286 287 289 293 296 299 300 301 302 303 304 305 305 305 304 303 302 302 302 302 302 302 302 303 303 302 302 301 301 300 299 298 299 300 301 301 301 300 299 298 298 298